GW4615 Weather Reports


Display with metric or nautical units.
time (UTC)temp
F
wind
direction
speed
MPH
gust
MPH
rain 1hr
in
rain 24hr
in
rain mn
in
humidity
%
barometer
mb
20260504100320 46 160 0.0 3.0 0.00 0.00 0.00 67 1015.7
20260504081714 46 219 0.0 1.0 0.00 0.00 0.00 66 1016.1
20260504081210 46 232 0.0 2.0 0.00 0.00 0.00 65 1016.4
20260504080707 46 260 1.0 3.0 0.00 0.00 0.00 66 1016.2
20260504080203 46 260 1.0 3.0 0.00 0.00 0.00 66 1016.2
20260504070131 45 127 0.0 1.0 0.00 0.00 0.00 68 1016.4
20260504050519 45 203 1.0 2.0 0.00 0.00 0.00 65 1017.0
20260504050017 45 218 1.0 1.0 0.00 0.00 0.00 67 1017.1
20260504045513 44 206 0.0 1.0 0.00 0.00 0.00 68 1017.0
20260504045009 44 208 0.0 0.0 0.00 0.00 0.00 69 1017.0
20260504044507 44 203 1.0 1.0 0.00 0.00 0.00 70 1017.1
20260504044004 44 235 1.0 1.0 0.00 0.00 0.00 70 1017.1
20260504043500 44 203 0.0 0.0 0.00 0.00 0.00 70 1017.1
20260504042958 44 191 0.0 1.0 0.00 0.00 0.00 69 1017.0
20260504042454 45 201 0.0 2.0 0.00 0.00 0.00 68 1017.0
20260504041951 45 190 0.0 0.0 0.00 0.00 0.00 69 1016.8
20260504041447 46 178 1.0 2.0 0.00 0.00 0.00 65 1017.0
20260504040943 46 229 0.0 2.0 0.00 0.00 0.00 62 1017.2
20260504040441 46 217 2.0 3.0 0.00 0.00 0.00 59 1017.2
20260504035937 46 221 1.0 3.0 0.00 0.00 0.00 59 1017.1
20260504035435 45 189 3.0 4.0 0.00 0.00 0.00 63 1017.0
20260504034931 44 206 1.0 3.0 0.00 0.00 0.00 66 1017.1
20260504034429 44 218 0.0 1.0 0.00 0.00 0.00 70 1017.1
20260504033925 44 201 0.0 0.0 0.00 0.00 0.00 68 1017.2
20260504033423 43 244 1.0 3.0 0.00 0.00 0.00 68 1017.1
20260504032920 43 202 0.0 0.0 0.00 0.00 0.00 71 1016.9
20260504032417 42 151 0.0 0.0 0.00 0.00 0.00 71 1017.3
20260504031914 42 153 0.0 0.0 0.00 0.00 0.00 71 1017.1
20260504031411 42 178 0.0 1.0 0.00 0.00 0.00 70 1017.1
20260504030907 42 238 0.0 0.0 0.00 0.00 0.00 70 1017.0
20260504030404 42 244 0.0 0.0 0.00 0.00 0.00 70 1017.1
20260504025900 42 238 0.0 0.0 0.00 0.00 0.00 70 1017.1
20260504025357 42 197 0.0 0.0 0.00 0.00 0.00 70 1017.2
20260504024854 42 212 0.0 0.0 0.00 0.00 0.00 70 1016.9
20260504024350 42 215 1.0 1.0 0.00 0.00 0.00 71 1017.1
20260504023847 42 196 1.0 2.0 0.00 0.00 0.00 71 1017.1
20260504023344 42 213 0.0 0.0 0.00 0.00 0.00 71 1017.1
20260504022839 42 231 0.0 0.0 0.00 0.00 0.00 67 1017.0
20260504022337 42 262 0.0 1.0 0.00 0.00 0.00 67 1016.9
20260504021833 42 227 1.0 1.0 0.00 0.00 0.00 68 1017.1
20260504021331 43 207 0.0 0.0 0.00 0.00 0.00 66 1017.1
20260504020828 43 243 1.0 1.0 0.00 0.00 0.00 65 1017.2
20260504020324 44 214 0.0 0.0 0.00 0.00 0.00 63 1017.0
20260504015820 44 210 0.0 2.0 0.00 0.00 0.00 62 1016.8
20260504015317 44 261 0.0 0.0 0.00 0.00 0.00 63 1016.6
20260504014814 44 223 0.0 0.0 0.00 0.00 0.00 63 1016.8
20260504014309 44 229 0.0 0.0 0.00 0.00 0.00 65 1016.5
20260504013807 45 207 0.0 0.0 0.00 0.00 0.00 63 1016.3
20260504013305 46 200 0.0 0.0 0.00 0.00 0.00 61 1016.3
20260504012800 46 263 1.0 2.0 0.00 0.00 0.00 57 1016.3
20260504012259 47 259 1.0 2.0 0.00 0.00 0.00 54 1015.9
20260504011755 47 201 1.0 3.0 0.00 0.00 0.00 53 1016.1
20260504011252 47 225 2.0 3.0 0.00 0.00 0.00 52 1016.1
20260504010748 47 249 1.0 2.0 0.00 0.00 0.00 55 1016.0
20260504010243 48 221 2.0 3.0 0.00 0.00 0.00 52 1015.8
20260504005741 49 286 2.0 4.0 0.00 0.00 0.00 50 1016.0
20260504005238 49 227 3.0 4.0 0.00 0.00 0.00 50 1015.9
20260504004736 50 260 0.0 2.0 0.00 0.00 0.00 46 1015.7
20260504004232 51 266 4.0 8.0 0.00 0.00 0.00 45 1015.8
20260504003729 50 232 2.0 6.0 0.00 0.00 0.00 44 1015.6
20260504003226 50 269 1.0 2.0 0.00 0.00 0.00 47 1015.7
20260504002723 50 264 1.0 2.0 0.00 0.00 0.00 46 1015.6
20260504002219 51 260 2.0 7.0 0.00 0.00 0.00 45 1015.7
20260504001718 52 253 4.0 7.0 0.00 0.00 0.00 43 1015.6
20260504001214 52 273 6.0 8.0 0.00 0.00 0.00 42 1015.7
20260504000711 53 284 1.0 1.0 0.00 0.00 0.00 45 1015.6
20260504000208 53 242 4.0 6.0 0.00 0.00 0.00 42 1015.7
20260503235706 53 268 3.0 4.0 0.00 0.00 0.00 43 1015.6
20260503235203 53 287 4.0 6.0 0.00 0.00 0.00 40 1015.6
20260503234700 53 260 2.0 3.0 0.00 0.00 0.00 45 1015.7
20260503234159 53 255 2.0 3.0 0.00 0.00 0.00 48 1015.4
20260503233655 53 253 2.0 2.0 0.00 0.00 0.00 50 1015.6
20260503233151 53 246 2.0 2.0 0.00 0.00 0.00 45 1015.6
20260503232648 53 278 2.0 2.0 0.00 0.00 0.00 46 1015.5
20260503232145 54 249 2.0 2.0 0.00 0.00 0.00 44 1015.5
20260503231643 54 247 2.0 3.0 0.00 0.00 0.00 39 1015.5
20260503231139 54 266 2.0 3.0 0.00 0.00 0.00 38 1015.6
20260503230636 55 244 2.0 2.0 0.00 0.00 0.00 43 1015.5
20260503230133 55 235 1.0 2.0 0.00 0.00 0.00 34 1015.4
20260503225631 54 236 2.0 2.0 0.00 0.00 0.00 36 1015.5
20260503225130 55 266 1.0 2.0 0.00 0.00 0.00 38 1015.3
20260503224628 55 243 2.0 3.0 0.00 0.00 0.00 33 1015.4
20260503224126 55 207 1.0 2.0 0.00 0.00 0.00 36 1015.3
20260503223624 55 246 2.0 2.0 0.00 0.00 0.00 35 1015.4
20260503223119 55 261 2.0 2.0 0.00 0.00 0.00 37 1015.3
20260503222617 55 301 2.0 2.0 0.00 0.00 0.00 36 1015.5
20260503222115 56 282 2.0 2.0 0.00 0.00 0.00 36 1015.4
20260503221613 58 130 0.0 1.0 0.00 0.00 0.00 34 1015.6
20260503221110 58 282 2.0 3.0 0.00 0.00 0.00 33 1015.5
20260503220607 58 60 5.0 6.0 0.00 0.00 0.00 28 1015.4
20260503220103 60 125 1.0 4.0 0.00 0.00 0.00 28 1015.4
20260503215600 63 167 4.0 6.0 0.00 0.00 0.00 25 1015.5
20260503215057 63 83 0.0 2.0 0.00 0.00 0.00 24 1015.4
20260503214555 66 232 4.0 6.0 0.00 0.00 0.00 25 1015.7
20260503214051 66 273 1.0 2.0 0.00 0.00 0.00 24 1015.5
20260503213550 63 239 0.0 2.0 0.00 0.00 0.00 25 1015.5
20260503213046 63 190 2.0 3.0 0.00 0.00 0.00 30 1015.5
20260503212544 62 220 4.0 6.0 0.00 0.00 0.00 28 1015.6
20260503212042 62 106 4.0 4.0 0.00 0.00 0.00 28 1015.6
20260503211538 63 278 5.0 7.0 0.00 0.00 0.00 24 1015.7
20260503211033 61 194 3.0 8.0 0.00 0.00 0.00 29 1015.5
20260503210531 61 22 3.0 7.0 0.00 0.00 0.00 28 1015.5
20260503210026 65 192 1.0 7.0 0.00 0.00 0.00 27 1015.6
20260503205523 62 94 2.0 2.0 0.00 0.00 0.00 30 1015.8
20260503205020 62 93 3.0 4.0 0.00 0.00 0.00 27 1015.9
20260503204517 61 149 4.0 7.0 0.00 0.00 0.00 31 1015.6
20260503204014 60 107 4.0 7.0 0.00 0.00 0.00 28 1015.9
20260503203511 61 161 2.0 10.0 0.00 0.00 0.00 30 1015.8
20260503203008 61 352 2.0 7.0 0.00 0.00 0.00 31 1016.0
20260503202506 61 40 3.0 9.0 0.00 0.00 0.00 29 1016.1
20260503202004 61 174 5.0 7.0 0.00 0.00 0.00 28 1016.2
20260503201501 61 62 4.0 6.0 0.00 0.00 0.00 31 1016.0
20260503200958 61 84 2.0 6.0 0.00 0.00 0.00 27 1016.2
20260503200455 62 17 2.0 6.0 0.00 0.00 0.00 27 1016.1
20260503195951 61 113 7.0 8.0 0.00 0.00 0.00 32 1016.4
20260503195449 60 51 8.0 9.0 0.00 0.00 0.00 28 1016.2
20260503194945 60 90 5.0 7.0 0.00 0.00 0.00 31 1016.8
20260503194442 60 14 5.0 6.0 0.00 0.00 0.00 30 1016.5
20260503193937 60 6 3.0 4.0 0.00 0.00 0.00 32 1016.5
20260503193433 60 63 6.0 7.0 0.00 0.00 0.00 30 1016.5
20260503192929 59 64 7.0 10.0 0.00 0.00 0.00 30 1016.4
20260503192427 59 75 2.0 6.0 0.00 0.00 0.00 29 1016.9
20260503191922 60 93 2.0 7.0 0.00 0.00 0.00 27 1016.9
20260503191420 60 30 6.0 9.0 0.00 0.00 0.00 29 1017.0
20260503190915 59 78 2.0 3.0 0.00 0.00 0.00 29 1017.2
20260503190413 59 65 3.0 7.0 0.00 0.00 0.00 29 1017.1
20260503185909 60 43 5.0 10.0 0.00 0.00 0.00 32 1017.2
20260503185406 58 31 9.0 10.0 0.00 0.00 0.00 30 1017.3
20260503184905 58 52 9.0 15.0 0.00 0.00 0.00 30 1017.4
20260503184402 59 36 4.0 6.0 0.00 0.00 0.00 31 1017.5
20260503183858 58 344 4.0 10.0 0.00 0.00 0.00 32 1017.4
20260503183355 59 137 12.0 17.0 0.00 0.00 0.00 27 1017.2
20260503182852 58 85 4.0 11.0 0.00 0.00 0.00 31 1017.2
20260503182351 58 46 7.0 9.0 0.00 0.00 0.00 32 1017.7
20260503181847 58 129 4.0 19.0 0.00 0.00 0.00 37 1017.3
20260503181345 59 80 6.0 7.0 0.00 0.00 0.00 35 1017.6
20260503180841 58 3 4.0 8.0 0.00 0.00 0.00 31 1017.6
20260503180339 58 21 4.0 8.0 0.00 0.00 0.00 32 1017.7
20260503175835 57 54 8.0 10.0 0.00 0.00 0.00 36 1017.4
20260503175334 57 297 3.0 13.0 0.00 0.00 0.00 28 1017.6
20260503174834 57 60 4.0 7.0 0.00 0.00 0.00 35 1017.6
20260503174333 56 33 5.0 13.0 0.00 0.00 0.00 35 1017.9
20260503173828 58 67 11.0 13.0 0.00 0.00 0.00 34 1017.6
20260503173324 57 20 4.0 6.0 0.00 0.00 0.00 34 1017.7
20260503172821 57 71 3.0 7.0 0.00 0.00 0.00 31 1017.9
20260503172319 57 66 11.0 16.0 0.00 0.00 0.00 32 1018.1
20260503171815 57 214 1.0 9.0 0.00 0.00 0.00 34 1017.9
20260503171312 57 84 6.0 8.0 0.00 0.00 0.00 35 1017.9
20260503170809 57 44 6.0 8.0 0.00 0.00 0.00 36 1018.0
20260503170306 57 70 4.0 7.0 0.00 0.00 0.00 33 1018.0
20260503150658 51 41 9.0 11.0 0.00 0.00 0.00 40 1019.1
20260503150154 51 103 4.0 9.0 0.00 0.00 0.00 43 1019.5
20260503140118 48 193 4.0 10.0 0.00 0.00 0.00 50 1019.4
20260503131048 47 84 3.0 7.0 0.00 0.00 0.00 55 1019.5
20260503130545 47 36 5.0 8.0 0.00 0.00 0.00 54 1019.4
20260503110435 40 138 0.0 2.0 0.00 0.00 0.00 67 1018.8